User: anonymous   Login
Location: *
(33.8649°S, 62.1526°E)
Time: 05:51:48
(UTC+00:00)
Language:

Cosmos 1954 Rocket - Orbit

View from above orbital plane
View from above orbital plane
View from above satellite
View from above satellite

Ground track
Ground track

The orbit data is extracted from the following two-line orbital elements,

1 19257U 88053B   21112.51310043  .00000095  00000-0  40353-4 0  9995
2 19257  74.0474 152.6934 0019403  52.9243  51.5815 14.37516959720413
Epoch (UTC): 22 April 2021 12:18:51
Eccentricity: 0.0019403
inclination: 74.0474°
perigee height: 753 km
apogee height: 780 km
right ascension of ascending node: 152.6934°
argument of perigee: 52.9243°
revolutions per day: 14.37516959
mean anomaly at epoch: 51.5815°
orbit number at epoch: 72041

The dashed part of the orbit path shows where the satellite is in the earth's shadow,  

DLR